GFSGL_sfc_thetae_099.txt.gz
Theta_e
325 323 323 322 323 323 321 318 318 318 317 317 318 319 321 322 322 322 322 322 321 321 321 320 320 319 317 316 316 317 314 312 309 312 313 316 316 317 317 318 319 319 319
322 322 321 322 322 322 320 317 318 317 317 317 317 318 319 321 321 321 320 321 319 319 320 319 319 318 316 316 315 315 315 314 312 309 312 312 312 316 317 315 318 319 318
320 320 320 321 321 320 319 318 318 317 317 317 317 315 315 317 320 320 321 320 320 320 320 319 319 317 315 315 314 315 315 315 314 311 310 314 314 314 314 314 316 317 319
320 319 319 319 320 320 319 318 317 317 316 316 316 315 315 314 315 318 318 318 318 318 317 317 317 316 315 315 315 314 314 314 313 312 309 309 311 312 313 310 310 314 313
317 319 319 319 320 319 319 318 318 317 316 317 316 314 314 313 310 314 315 315 314 313 314 315 315 311 306 309 315 314 314 313 312 311 309 308 308 309 310 311 310 310 297
300 310 316 318 320 319 320 319 318 317 316 316 315 315 303 298 291 295 307 312 312 312 311 313 315 306 305 296 293 292 301 312 310 309 307 306 308 301 299 301 302 302 300
291 295 301 303 303 304 304 302 301 299 298 297 296 296 293 293 291 293 296 312 311 310 309 311 310 299 300 295 289 289 288 288 289 303 308 297 296 290 291 294 297 297 293
288 289 292 294 294 294 294 293 292 291 290 290 290 290 290 290 291 292 292 294 290 289 290 292 294 293 293 294 289 286 286 286 286 287 286 284 285 286 288 291 291 286 285
284 286 288 289 288 288 287 287 288 287 286 286 286 287 287 288 289 290 290 288 286 286 286 288 288 290 290 291 287 284 283 284 286 287 286 286 286 286 288 290 286 286 284
284 284 286 287 287 286 286 285 285 285 284 284 284 285 286 286 288 288 288 286 284 284 285 285 287 288 288 287 286 284 282 282 283 284 283 284 284 284 284 284 285 285 284
282 284 284 284 286 287 286 286 285 284 284 283 282 283 284 285 286 287 286 285 283 283 283 283 285 286 287 287 286 284 283 285 284 283 283 283 283 282 281 280 281 281 276
280 280 280 281 282 284 284 284 285 284 283 282 282 282 282 284 285 286 285 285 284 283 282 283 284 286 286 285 285 285 285 284 283 282 281 280 280 277 276 276 275 276 277
279 278 278 279 279 280 280 282 281 282 281 280 280 280 281 283 283 284 284 284 284 283 283 284 284 284 283 283 284 284 283 283 282 280 278 275 273 274 277 277 279 279 278
279 278 278 277 277 278 279 279 279 279 278 279 278 278 280 281 282 283 284 284 283 283 282 282 281 280 279 278 278 279 279 279 278 277 275 273 275 276 276 277 276 277 276
281 281 278 277 276 276 278 278 278 279 279 278 278 279 279 280 282 284 283 282 282 282 282 281 279 278 276 275 275 276 276 276 275 275 275 275 275 276 276 276 276 275 273
279 280 280 279 277 276 275 276 280 280 281 282 282 280 281 283 284 284 283 283 282 281 279 276 275 274 274 274 273 273 274 274 275 274 273 274 274 274 275 275 274 272 271
278 279 279 279 279 279 277 276 273 276 280 280 280 281 282 283 282 282 282 281 280 279 275 274 273 273 273 273 272 272 271 273 273 272 271 271 272 273 272 272 272 271 271
279 279 278 278 277 277 277 275 275 273 272 273 277 278 279 280 280 280 279 277 274 275 274 273 273 273 273 272 272 271 271 271 271 271 269 268 268 270 269 269 269 265 268
277 277 277 277 277 277 276 273 272 271 270 270 271 274 275 277 277 277 276 273 272 272 272 271 271 272 271 271 271 270 269 268 268 267 267 267 265 267 267 267 267 266 267
275 276 275 275 274 274 274 273 271 269 269 269 269 270 272 272 269 269 270 270 270 270 270 270 270 269 270 269 268 268 267 266 266 266 265 265 264 266 265 266 266 265 267
272 273 272 273 273 273 273 272 272 269 268 269 269 271 271 269 268 268 268 267 267 268 268 268 267 267 267 267 267 265 264 263 263 263 262 263 261 264 264 265 265 265 266
273 272 272 272 273 270 271 271 270 269 269 267 268 268 268 268 267 267 267 265 265 266 267 267 266 265 265 265 264 263 260 260 259 258 259 260 261 261 260 260 259 258 262
271 270 270 270 271 269 266 267 266 268 266 264 264 265 265 261 262 264 263 264 264 263 263 263 262 261 262 263 262 261 259 258 259 254 254 255 258 259 255 256 257 256 256
269 268 269 267 266 265 264 263 265 264 265 267 265 262 260 258 258 256 255 254 260 254 256 257 259 259 259 256 255 258 258 253 254 253 251 252 255 257 255 258 258 255 255
264 263 265 268 263 263 266 266 260 258 262 258 257 259 261 264 262 255 254 254 255 254 257 258 256 257 255 257 255 256 254 254 251 252 251 251 251 257 257 256 253 255 254
264 263 261 262 260 260 258 257 260 260 257 256 262 262 262 263 261 258 256 255 254 255 258 257 257 257 258 257 257 255 253 254 251 252 249 252 254 254 252 252 254 254 256

GFSGL_sfc_thetae_102.txt.gz
Theta_e
319 320 322 321 322 321 322 320 319 317 316 318 320 321 322 322 323 323 323 323 322 321 322 321 320 321 318 318 318 316 315 313 309 310 314 316 316 317 317 318 317 316 316
314 318 320 322 322 320 319 319 318 315 316 317 315 317 318 319 322 321 321 321 321 320 320 320 319 320 318 316 316 316 314 313 311 309 311 313 314 317 318 316 319 321 320
304 318 320 320 320 320 319 318 316 317 317 316 317 316 316 317 319 320 321 320 320 320 320 320 319 319 317 316 315 314 315 314 312 311 311 313 314 315 314 315 315 316 311
302 319 319 319 320 319 319 317 316 316 317 316 316 316 315 314 315 319 320 320 320 320 320 320 320 319 318 316 315 315 314 313 312 310 310 310 312 313 312 310 311 314 306
296 300 308 319 320 319 318 317 317 317 317 316 315 315 314 309 303 306 319 319 318 318 319 319 319 315 307 311 316 314 314 313 311 310 309 309 309 308 309 309 309 306 297
292 292 296 303 317 317 318 318 315 310 312 312 311 309 303 299 291 293 306 315 316 316 315 316 313 306 303 300 297 293 304 313 312 311 309 309 307 306 303 305 306 304 298
288 289 290 293 297 299 300 298 297 296 296 294 295 295 293 293 291 293 296 308 302 304 308 311 306 302 300 294 289 289 288 288 290 309 309 303 300 295 296 297 298 297 290
286 286 288 289 289 291 291 290 289 289 289 289 289 289 290 290 290 291 291 293 291 290 291 295 299 297 296 294 290 287 286 286 286 287 287 285 285 287 291 293 292 285 285
283 284 285 287 286 286 286 286 286 286 285 285 286 286 287 287 288 289 290 289 287 286 288 289 291 291 290 291 288 284 283 284 286 287 286 286 287 288 289 290 286 286 283
280 282 284 285 285 285 285 284 284 284 283 284 284 285 286 285 287 288 288 286 285 285 285 286 287 287 288 288 287 285 283 282 283 283 283 283 283 284 285 285 286 285 283
280 280 280 281 283 284 285 285 284 284 283 282 282 283 284 285 285 287 286 285 284 283 284 284 285 286 287 286 286 285 283 284 283 283 282 282 281 280 280 281 282 283 279
279 278 279 279 280 281 282 282 283 282 282 282 282 282 283 284 285 286 285 285 285 283 282 283 285 286 286 285 284 284 284 283 282 281 280 280 280 280 279 279 279 279 280
278 277 277 278 279 279 279 279 279 280 280 281 281 281 281 283 283 284 284 283 283 281 281 281 281 281 281 281 282 282 282 282 280 278 277 276 277 279 280 281 280 280 279
279 278 277 276 277 278 279 279 279 278 278 279 279 280 281 282 282 283 283 283 282 281 280 279 278 278 277 277 278 278 278 277 277 276 276 277 278 277 276 278 278 278 277
279 280 278 277 276 276 278 279 279 280 281 278 279 280 280 280 282 284 282 281 281 280 279 278 276 276 275 275 275 276 276 276 275 275 276 276 276 276 275 276 275 275 273
278 278 279 279 277 276 275 275 280 281 281 282 282 282 281 283 283 283 282 282 281 279 276 274 273 273 273 273 272 273 273 273 274 274 273 274 274 274 274 274 274 273 272
278 278 278 278 277 277 276 275 273 276 278 280 280 281 282 281 281 281 280 280 279 277 274 273 272 272 272 272 272 272 271 272 273 271 271 271 273 273 272 272 271 272 272
276 275 275 276 275 274 273 272 272 271 270 271 276 277 279 279 279 278 278 276 273 273 273 272 271 272 272 271 271 270 270 270 270 269 268 268 269 270 270 270 269 269 270
275 274 273 273 273 273 272 270 270 270 269 270 271 273 273 275 275 275 274 271 270 270 271 270 270 270 270 270 268 268 267 267 266 266 266 266 266 268 267 268 268 267 268
270 272 270 271 271 270 269 268 268 268 269 269 269 269 270 269 267 267 268 268 268 268 268 268 268 268 268 268 267 266 265 265 264 264 263 263 262 264 264 264 264 263 266
267 269 268 270 270 270 269 268 267 267 267 267 267 268 268 267 266 266 266 265 266 267 266 266 265 265 266 266 265 262 261 261 261 261 261 262 260 261 263 263 263 265 265
269 269 270 271 269 266 268 270 267 266 266 266 264 264 264 264 265 265 264 262 263 265 265 263 263 264 263 263 262 259 258 256 255 256 257 258 260 260 259 260 258 259 262
268 266 268 268 268 265 263 264 264 265 264 260 260 262 262 259 258 260 259 257 259 259 261 261 260 260 261 258 256 258 258 257 256 254 252 253 257 256 256 256 257 256 256
265 264 267 264 262 266 262 258 259 262 265 263 261 260 258 254 253 253 252 252 253 252 252 253 257 258 257 252 253 257 258 253 254 252 249 249 253 255 254 255 255 253 253
259 257 258 258 257 256 259 262 258 254 254 255 255 257 261 261 257 251 250 251 252 250 255 253 254 255 255 253 253 255 253 252 251 250 249 250 250 251 252 253 251 254 252
260 260 258 258 255 254 253 253 254 253 253 253 256 257 259 260 259 253 253 253 253 253 254 255 255 254 255 254 255 254 252 252 250 250 247 251 249 250 249 250 252 252 254

GFSGL_sfc_thetae_108.txt.gz
Theta_e
301 306 320 324 324 324 323 323 323 321 321 322 323 323 322 323 323 323 324 323 322 322 322 322 321 322 321 319 318 316 315 313 310 311 314 314 316 316 317 317 317 316 315
300 306 320 321 322 321 321 320 320 320 320 319 320 320 320 320 321 321 321 322 322 321 321 321 321 321 321 319 317 316 315 315 311 308 311 312 313 316 316 315 316 317 313
297 300 304 309 320 319 319 319 319 319 319 318 318 318 318 317 317 317 317 317 319 321 321 321 321 321 319 318 316 316 316 315 314 310 310 312 313 315 314 315 315 305 302
293 295 296 298 308 318 318 318 318 318 316 316 316 315 315 314 314 312 310 312 315 317 318 320 321 321 320 319 317 316 315 314 313 312 310 310 312 314 315 313 309 305 299
290 290 291 293 296 300 310 316 316 315 316 316 316 315 311 306 298 297 303 305 310 313 317 319 320 318 311 315 318 317 316 314 313 312 311 310 310 311 312 313 310 303 298
286 288 289 290 290 291 292 294 295 296 297 300 300 301 297 297 290 291 293 308 307 303 309 317 319 309 307 302 303 305 313 314 313 312 311 310 311 312 309 311 305 301 299
283 284 286 287 286 287 288 288 288 288 289 289 290 292 291 290 289 291 291 299 297 296 296 299 306 306 307 304 293 292 291 292 303 314 312 312 309 309 309 306 305 303 299
281 282 283 284 285 285 285 285 285 286 285 286 286 287 288 288 288 290 290 292 291 289 290 293 295 294 292 297 293 288 287 287 288 291 299 291 290 298 308 306 303 286 286
279 280 282 282 282 283 283 284 284 284 284 284 284 285 285 286 288 288 289 289 287 286 287 288 289 289 290 292 289 286 285 285 286 287 287 287 287 288 291 295 290 291 284
278 279 281 282 282 281 282 283 284 284 283 283 283 283 284 283 286 287 287 286 284 285 285 285 287 287 288 289 288 288 286 285 285 284 284 283 284 284 285 286 289 292 284
277 278 279 280 281 282 282 282 282 283 283 283 282 283 283 283 283 285 285 284 283 282 282 282 284 286 286 287 286 285 284 284 283 282 280 280 280 280 280 281 282 284 282
277 276 277 279 279 280 281 281 282 282 282 281 281 281 282 282 283 283 283 283 282 280 280 281 283 284 284 283 283 283 283 283 282 280 278 278 277 277 278 278 278 279 279
277 275 275 276 276 278 278 279 279 280 280 280 280 279 280 281 281 282 282 281 280 279 279 280 280 280 280 280 281 280 280 280 279 277 276 277 278 278 279 278 278 278 278
277 276 275 275 275 276 277 278 278 278 277 277 278 278 278 279 280 280 279 279 278 278 277 277 277 277 276 276 277 277 277 278 277 276 276 277 278 277 277 278 276 276 275
276 274 273 273 273 273 275 277 277 278 279 277 277 277 277 277 279 281 280 278 277 277 276 275 275 274 274 274 274 274 275 275 275 276 275 275 275 275 275 277 276 274 273
274 273 272 271 271 271 270 271 277 278 279 279 280 278 277 280 280 280 280 279 278 277 274 272 272 272 271 272 271 271 272 272 274 274 274 274 274 274 274 275 275 273 272
272 273 272 271 270 269 269 268 267 270 275 276 276 278 278 278 278 279 278 277 277 275 271 271 270 270 270 270 270 270 269 270 272 272 272 272 273 273 273 273 273 273 271
270 268 268 268 267 266 265 266 267 266 265 266 271 272 275 276 276 275 275 273 270 271 270 269 269 269 269 268 268 268 268 268 269 269 269 270 271 271 271 270 271 271 270
270 268 266 264 264 264 264 265 265 265 265 265 265 266 267 272 272 272 271 267 267 267 268 268 268 268 267 267 266 266 266 266 266 266 266 267 268 269 268 269 269 268 269
265 267 265 264 264 263 263 263 264 263 263 263 263 262 265 264 262 263 263 264 264 265 265 265 265 265 265 265 264 264 264 264 264 264 263 264 265 266 266 266 267 266 266
264 265 265 266 265 265 264 263 263 262 261 261 260 257 260 262 261 260 262 261 262 262 261 263 262 262 262 262 262 260 260 260 261 262 262 262 260 263 264 265 265 265 265
266 266 267 266 266 263 264 265 261 261 261 260 259 259 258 258 259 259 258 254 255 259 261 260 260 260 260 260 259 257 256 255 257 258 259 260 261 261 262 261 261 261 263
264 263 264 265 265 263 260 262 260 257 256 254 256 258 258 253 252 256 254 250 255 254 255 257 256 257 256 255 257 257 257 256 255 254 255 257 259 259 259 259 259 259 259
262 260 263 261 258 259 255 254 256 260 260 256 252 254 254 251 249 250 249 249 251 250 249 250 255 256 256 252 254 257 257 254 254 253 252 255 258 258 258 258 258 256 257
256 254 255 255 252 251 250 253 254 252 253 254 255 255 257 254 255 250 248 250 251 249 253 252 253 254 253 252 254 255 253 251 251 250 253 254 254 254 256 256 256 257 256
258 258 257 255 254 251 250 251 254 251 250 251 250 250 250 255 259 251 251 250 252 252 254 252 254 253 253 254 254 253 251 251 250 248 251 254 254 254 255 255 255 256 256

GFSGL_sfc_thetae_111.txt.gz
Theta_e
298 302 311 326 328 329 329 333 333 331 328 328 329 331 329 326 327 327 327 326 325 325 325 326 325 325 324 324 324 325 319 318 314 320 317 317 318 318 319 322 324 324 322
297 300 303 309 324 324 324 324 325 325 327 328 327 325 324 325 325 324 323 323 324 324 325 325 323 323 323 324 322 320 320 319 318 313 314 314 315 318 320 322 322 323 324
294 297 298 300 307 321 321 321 322 322 322 322 324 323 322 321 321 321 321 320 321 321 322 322 324 324 321 321 321 319 318 317 317 315 311 314 315 316 316 318 321 321 315
291 292 294 294 298 303 315 317 318 319 319 319 319 318 317 315 311 311 313 314 315 317 319 321 320 320 320 321 321 320 318 316 315 314 312 312 313 314 317 314 309 309 305
287 288 290 292 292 295 296 298 301 299 300 301 307 304 302 297 293 295 303 308 312 313 315 316 319 318 310 314 320 319 318 315 314 313 312 312 311 311 311 314 311 304 301
284 285 287 290 290 289 290 291 293 292 292 292 292 292 291 291 289 290 293 303 309 308 306 308 311 307 307 301 301 303 314 316 314 313 312 310 311 312 314 313 306 301 299
282 283 284 286 287 285 287 287 286 287 287 286 287 288 287 287 288 289 290 299 297 295 295 297 300 303 297 302 294 293 294 297 306 315 313 312 312 313 314 311 306 306 303
280 281 282 283 284 285 285 284 285 285 284 284 284 285 285 285 287 288 289 291 289 288 289 290 292 294 294 296 291 288 287 287 288 293 307 297 296 313 314 313 310 291 288
279 280 281 282 282 283 283 284 284 284 283 283 284 283 283 283 286 287 288 287 286 285 286 287 288 289 289 291 289 286 285 285 287 288 288 288 287 288 293 302 296 296 285
278 279 280 282 282 282 283 283 284 284 283 283 282 282 283 282 284 285 284 284 283 283 284 284 285 286 287 287 290 288 285 285 286 285 285 285 285 285 286 286 295 299 286
279 279 279 280 281 282 283 284 285 284 284 283 282 283 282 282 283 283 283 281 280 280 280 280 282 284 285 285 285 284 284 285 284 285 284 283 281 280 280 281 283 286 285
278 278 278 279 280 281 281 282 282 283 283 283 283 283 283 283 283 283 282 281 280 279 278 279 280 281 282 282 282 282 283 282 282 280 279 277 277 277 277 278 279 279 280
276 276 276 278 279 279 279 280 280 281 280 280 280 280 281 283 283 282 281 281 280 279 279 279 280 279 279 278 280 280 280 280 279 277 277 277 278 278 279 278 279 279 278
274 275 276 276 276 278 280 280 279 279 279 278 278 278 280 281 281 282 282 281 280 279 279 278 278 278 277 276 276 277 277 277 277 276 276 277 278 278 277 278 276 277 276
275 275 275 276 275 275 276 277 278 278 278 278 278 278 278 278 279 280 280 280 280 278 279 279 277 276 275 275 275 275 275 276 276 276 276 276 276 276 276 277 276 276 274
275 275 274 274 274 274 274 275 275 276 277 277 278 278 278 278 279 279 279 278 277 277 277 276 275 274 273 273 273 273 274 274 275 276 276 276 275 276 275 275 275 275 273
274 274 274 274 273 273 273 272 271 273 274 274 274 276 276 276 277 277 277 276 276 276 275 274 273 272 272 272 271 271 271 272 274 274 275 275 275 275 276 275 275 274 273
274 271 273 273 273 272 272 272 271 270 270 270 272 272 273 274 274 274 274 275 274 274 273 272 272 272 271 271 271 270 270 271 271 272 272 273 274 274 273 273 273 272 271
274 273 273 273 272 271 272 272 271 270 270 269 270 270 270 271 271 271 272 271 271 271 271 271 271 271 271 270 270 270 270 269 270 270 270 271 272 273 272 272 272 271 271
273 270 271 273 273 272 272 271 270 270 269 269 268 268 269 269 268 268 269 269 269 269 269 269 269 269 269 269 269 269 270 269 269 269 269 270 271 272 271 271 271 270 270
272 272 270 272 272 272 271 271 270 270 269 269 268 266 264 268 267 267 267 267 267 268 268 268 268 268 268 267 267 267 267 268 267 268 268 269 269 269 270 270 270 270 269
271 271 271 270 271 270 270 270 270 269 269 268 268 268 264 268 267 266 266 265 266 266 267 267 267 266 266 266 266 266 265 265 266 267 267 267 268 268 269 268 268 268 269
270 270 270 269 269 268 269 269 269 269 269 268 268 268 267 267 266 266 265 265 265 265 265 266 265 264 264 264 265 264 264 263 263 264 266 267 267 267 268 267 266 266 266
269 269 268 268 268 268 267 267 267 266 267 268 268 267 267 267 266 265 265 265 265 265 264 264 264 263 263 263 264 264 263 262 263 263 263 266 266 266 266 265 265 264 265
269 269 269 268 267 267 266 267 267 267 267 267 267 267 267 267 267 267 265 265 264 265 263 263 264 261 261 260 260 260 258 258 259 258 264 263 263 263 263 264 264 264 263
269 269 269 268 268 268 267 267 267 267 266 266 266 266 266 266 267 267 266 265 265 265 263 265 263 260 259 261 260 258 258 257 259 256 262 264 264 264 264 262 261 264 263

GFSGL_sfc_thetae_117.txt.gz
Theta_e
289 292 294 300 303 309 322 331 335 336 335 335 336 332 331 331 331 331 330 329 329 330 330 330 331 334 332 329 328 331 330 327 320 324 327 328 330 328 326 324 325 323 320
287 291 296 297 301 304 316 330 334 333 334 335 335 334 333 330 329 329 328 328 328 326 328 328 327 329 330 329 327 325 325 326 324 320 325 325 325 329 328 324 322 324 323
287 289 293 293 295 295 299 303 307 324 325 319 323 317 320 323 326 326 327 327 328 327 327 325 327 327 324 325 327 327 327 325 327 323 320 323 323 327 324 322 322 321 323
286 287 289 290 291 293 294 294 298 300 299 299 297 297 296 296 300 307 321 322 322 322 323 323 324 323 320 316 320 321 324 324 321 320 320 319 320 321 323 318 316 319 318
284 285 286 288 289 289 290 290 291 292 292 295 297 295 294 294 294 296 310 314 315 315 310 309 307 302 297 298 305 309 308 311 315 318 316 317 316 315 315 318 316 316 308
284 284 285 286 286 287 286 287 288 288 287 288 289 290 292 292 292 293 300 302 300 298 297 298 301 300 298 295 295 294 294 300 304 309 314 314 315 316 316 315 314 303 299
283 284 284 284 284 284 285 285 284 284 285 285 285 286 285 286 289 290 290 291 290 288 288 291 293 293 292 295 296 294 292 289 289 292 297 304 307 313 316 314 313 309 309
283 283 284 284 284 284 284 284 283 283 283 283 283 283 283 284 286 286 287 286 285 285 285 285 287 287 287 289 295 296 291 290 289 289 288 286 286 288 291 310 315 311 294
281 282 283 284 283 283 284 284 284 284 284 283 283 283 282 283 285 284 285 284 283 282 283 284 284 284 285 287 292 291 287 285 287 287 287 286 286 286 287 296 306 297 286
281 282 284 284 283 283 284 284 284 285 284 284 283 284 284 283 285 284 282 282 280 281 282 282 283 284 284 284 284 285 284 284 284 284 283 284 284 283 284 285 288 299 288
282 283 282 283 283 283 283 284 285 285 284 284 284 283 283 283 284 285 284 282 281 280 279 279 281 282 283 283 283 282 281 283 282 281 281 281 281 281 281 282 283 284 287
281 281 282 281 282 282 280 282 283 282 283 282 283 283 283 283 283 283 284 283 284 282 281 282 282 283 282 282 281 281 281 281 280 279 278 277 277 278 280 281 281 281 283
281 280 281 282 280 281 280 278 278 280 280 280 280 281 282 282 282 281 282 283 283 283 284 283 284 284 283 283 282 281 281 281 279 277 277 277 277 279 280 280 281 281 280
280 281 282 281 282 280 280 280 276 276 276 277 278 276 278 279 280 281 281 283 282 284 284 285 284 283 284 284 283 284 284 283 281 280 279 279 279 278 277 279 278 279 277
282 282 282 282 282 282 278 277 277 276 276 275 275 277 274 274 276 278 279 280 282 283 284 283 282 282 281 282 282 282 282 282 282 282 282 281 281 280 279 279 278 278 276
280 281 280 281 281 281 280 280 278 277 277 276 275 275 276 276 276 278 279 279 279 281 281 279 279 279 279 278 279 279 279 279 280 281 281 281 280 280 279 279 279 278 276
278 279 280 279 280 279 279 278 277 280 279 277 276 276 276 275 276 276 278 279 279 279 278 278 278 278 277 277 277 277 276 278 279 279 279 279 280 280 279 278 278 276 275
278 278 280 280 279 279 279 278 278 277 276 277 277 275 275 276 276 276 276 278 277 277 276 275 275 276 276 276 276 276 276 276 277 277 278 278 279 278 278 277 277 276 275
277 277 279 279 279 279 279 278 278 277 277 277 277 275 274 275 276 275 275 274 274 274 274 275 275 274 274 275 275 275 276 276 276 276 276 277 277 277 276 276 275 274 274
279 276 277 278 278 277 277 277 276 276 276 275 275 273 273 274 274 274 274 273 273 273 273 273 273 273 273 273 274 274 274 274 275 275 275 275 276 277 276 276 275 275 273
278 278 276 277 276 276 275 275 275 275 275 274 274 274 271 273 273 273 272 271 271 271 271 271 272 272 271 272 272 272 272 272 272 273 273 274 275 274 275 275 275 274 274
277 277 276 276 276 275 275 275 275 274 274 273 273 274 273 273 272 272 272 271 271 271 271 270 270 270 270 270 270 270 270 269 269 270 272 273 273 274 274 274 274 274 273
277 276 276 276 275 274 275 274 274 273 273 273 273 272 272 272 272 272 271 271 270 270 271 270 269 268 269 269 270 269 267 267 268 268 269 271 271 271 273 272 272 272 271
276 276 275 275 275 274 274 273 274 273 273 273 272 272 272 272 272 272 272 271 270 270 270 269 269 268 266 266 267 267 265 264 266 267 268 269 270 270 271 270 270 269 270
276 275 275 274 274 274 274 273 273 273 273 272 272 272 272 272 271 271 272 271 270 269 269 269 269 268 267 266 265 264 263 262 263 263 267 269 268 268 267 269 268 269 268
275 274 274 274 274 273 273 272 272 272 272 272 272 272 272 271 271 271 271 270 270 269 269 269 269 268 267 267 267 263 262 262 263 263 266 268 267 268 267 268 267 269 267

GFSGL_sfc_thetae_120.txt.gz
Theta_e
286 289 291 295 297 300 302 305 306 310 315 323 323 323 319 328 329 330 331 330 329 329 329 329 328 330 330 328 327 326 325 322 318 320 321 322 321 323 322 321 323 323 321
286 289 291 292 294 295 297 301 308 313 318 324 326 326 322 328 329 330 329 328 328 327 327 327 327 328 328 329 325 323 321 321 320 318 321 321 321 321 323 321 322 324 323
285 287 288 289 290 290 292 294 296 297 300 301 301 304 306 309 325 329 329 327 327 327 327 326 327 328 327 325 324 323 321 323 323 319 318 322 320 321 321 323 322 321 323
285 285 286 286 288 289 290 289 290 292 291 295 298 297 298 299 301 305 326 326 326 325 325 320 315 315 315 315 316 315 316 314 316 318 316 315 319 320 321 317 318 320 319
284 284 284 286 287 287 287 288 288 287 287 289 289 292 293 295 297 301 303 302 305 304 305 304 298 299 296 297 306 304 305 307 307 309 311 313 315 316 316 318 317 317 317
283 283 284 285 285 286 285 285 286 286 286 287 287 287 287 290 291 293 292 291 291 291 291 295 297 292 294 294 295 290 293 297 299 302 304 306 309 314 316 315 316 314 304
283 283 284 284 284 284 285 284 284 284 285 284 285 285 286 286 287 288 290 289 289 287 286 287 288 289 288 293 294 290 289 289 288 290 293 293 290 290 289 294 304 313 310
282 282 282 283 283 284 284 284 284 284 283 282 282 283 283 284 285 285 285 284 283 283 284 284 285 285 285 289 294 290 287 287 287 288 287 285 285 286 286 288 291 295 296
280 281 282 281 281 282 282 283 284 284 283 282 282 281 282 283 285 285 283 282 281 280 282 283 283 283 285 286 287 287 285 283 287 286 286 285 284 285 285 286 288 290 289
280 279 280 281 279 279 280 281 283 283 283 283 281 281 282 281 285 285 284 283 281 281 281 281 283 283 284 284 282 282 281 281 281 282 282 282 283 283 283 282 281 283 286
280 281 279 279 280 278 279 279 280 281 280 281 280 280 280 281 281 284 284 282 282 281 281 281 283 284 284 284 283 281 280 281 280 280 280 280 280 280 281 281 281 280 280
280 279 280 278 278 278 276 276 277 277 278 277 277 277 278 278 281 281 283 283 284 282 281 282 283 284 284 284 283 283 283 281 280 279 278 277 277 278 279 281 281 281 280
279 279 279 279 278 278 275 274 274 275 274 275 275 273 274 276 277 280 281 282 283 282 283 283 284 284 284 282 283 283 282 282 281 279 278 278 278 279 280 280 281 281 281
278 279 280 279 277 277 277 275 273 273 272 272 273 272 272 273 275 277 278 278 280 281 282 281 281 281 281 280 281 280 280 280 280 280 280 280 278 279 279 280 279 279 278
280 279 280 280 279 278 276 276 274 275 275 272 272 272 272 272 274 278 279 277 278 280 279 279 278 277 277 277 277 278 278 278 278 279 279 279 279 278 278 279 278 277 276
279 279 278 279 279 279 278 278 280 279 278 277 276 276 275 276 277 278 279 280 279 279 276 275 274 274 274 275 275 275 276 276 276 277 277 278 278 277 277 277 277 276 274
277 278 279 278 278 277 277 277 275 278 280 278 277 276 276 277 277 277 277 278 278 277 273 272 272 272 273 273 273 274 274 274 276 277 276 276 277 277 277 276 276 275 274
276 276 278 277 277 277 276 276 276 275 274 274 277 275 275 277 277 276 275 275 272 273 272 271 271 271 271 272 272 272 273 273 274 274 274 275 275 276 274 274 274 273 273
276 275 276 277 276 275 276 276 275 274 274 273 274 272 272 275 276 276 274 270 269 269 270 270 271 270 270 270 271 271 271 271 271 272 272 272 273 275 273 274 274 272 273
277 273 273 276 275 274 274 274 274 273 273 272 272 270 271 271 270 270 270 269 268 268 268 268 269 269 268 268 268 269 269 269 269 269 270 271 271 272 272 270 271 271 272
276 276 272 276 275 274 274 273 273 272 272 271 271 271 268 271 270 269 269 268 268 268 267 267 267 268 267 267 267 266 267 266 266 266 267 269 270 267 269 271 270 269 270
276 276 276 275 275 273 273 273 273 272 272 271 271 271 268 270 270 269 269 266 267 268 269 266 267 266 266 265 266 265 263 263 264 265 264 267 269 269 271 267 268 269 268
276 275 275 275 275 272 273 273 272 272 271 271 270 270 270 269 269 270 270 269 267 265 267 266 263 265 262 262 265 264 261 260 261 263 263 264 268 266 268 266 266 265 263
275 275 274 274 273 273 273 272 272 271 272 272 271 270 269 268 267 267 268 269 266 265 263 264 265 265 264 260 260 261 261 258 260 260 260 263 263 264 263 266 266 262 262
275 274 273 272 272 272 271 271 271 271 270 270 270 270 271 271 270 267 267 268 266 266 266 264 265 264 262 260 263 260 257 257 256 257 261 263 262 266 263 261 260 264 260
274 273 272 272 271 271 270 269 269 269 269 269 269 269 269 269 270 270 267 265 265 265 263 265 266 263 262 264 263 259 257 257 256 257 260 262 262 260 260 263 261 265 262

GFSGL_sfc_thetae_126.txt.gz
Theta_e
285 286 287 288 289 290 290 291 292 294 296 300 303 303 304 305 306 309 315 321 321 322 320 320 320 322 323 320 321 326 325 319 315 315 317 318 323 324 324 323 323 322 321
285 285 286 288 287 287 288 289 291 290 292 292 294 295 298 299 304 307 310 319 320 319 319 323 324 325 324 323 320 323 324 323 318 317 315 316 318 323 324 321 322 323 323
283 283 284 285 286 286 286 287 288 289 289 289 290 291 291 292 297 302 305 311 312 312 311 315 316 314 320 325 325 325 325 323 321 315 315 317 317 317 319 319 320 321 322
282 281 281 282 285 285 285 285 285 286 286 287 287 288 289 289 290 292 294 296 296 295 296 295 297 300 309 324 324 324 323 321 319 317 313 313 315 315 316 314 316 319 319
280 279 279 281 283 284 284 283 283 283 284 285 286 286 287 287 287 289 289 289 289 290 290 291 292 293 292 294 312 306 318 320 317 315 312 313 313 313 312 311 313 313 317
278 277 278 279 280 281 282 282 281 281 281 281 283 284 284 285 287 287 287 287 286 286 286 288 289 291 292 289 290 290 290 299 306 307 307 306 301 296 295 297 299 304 305
277 277 276 277 277 279 279 279 279 278 278 279 279 281 283 284 286 286 285 284 284 284 284 285 285 286 289 289 288 287 287 287 287 294 291 288 289 286 288 291 294 294 297
277 276 276 275 274 276 277 276 276 276 276 276 278 279 281 284 285 285 285 284 283 283 283 283 283 284 285 286 285 284 282 284 284 285 284 283 284 284 284 286 287 287 288
276 276 276 275 274 273 273 275 275 275 274 275 276 278 278 281 285 285 283 283 282 282 282 283 283 283 285 285 282 281 280 280 283 284 285 284 284 284 284 285 282 283 285
276 276 276 276 275 273 273 273 274 274 274 275 275 276 279 278 283 284 282 281 280 280 281 281 283 282 283 283 281 281 279 279 280 280 281 281 282 282 283 281 280 280 282
273 276 275 275 275 275 274 274 274 274 274 274 274 275 276 279 280 282 282 279 278 278 278 278 280 281 281 281 281 280 279 282 281 281 280 280 280 280 280 281 281 279 278
269 269 271 272 274 274 273 274 274 273 273 273 273 274 275 277 280 280 280 280 279 277 276 277 278 280 280 280 279 280 280 279 279 279 278 278 278 278 279 280 281 281 281
272 270 265 268 271 271 272 272 272 272 272 272 273 272 273 275 277 278 279 278 277 275 276 277 277 277 277 277 278 278 277 276 276 275 275 277 277 278 278 278 279 278 279
273 273 274 271 271 270 272 274 273 272 271 272 272 272 272 272 274 275 274 275 274 273 273 273 273 274 273 273 273 274 274 275 275 275 275 276 277 277 276 277 275 275 275
274 273 273 274 272 273 274 274 274 274 274 272 272 272 272 270 272 275 274 273 272 272 270 270 269 269 269 269 270 271 271 271 272 273 273 273 275 275 274 275 275 274 271
275 274 273 273 273 273 271 271 277 277 277 276 277 275 272 275 275 275 274 274 273 273 268 266 265 265 266 266 267 267 268 268 269 270 270 271 271 273 274 274 274 273 271
274 274 273 273 273 271 270 270 266 269 275 275 275 276 276 275 274 274 273 272 272 270 265 265 264 264 265 265 265 265 265 266 266 266 267 267 269 271 271 271 271 271 271
272 268 269 268 267 266 263 266 264 265 264 263 270 273 274 274 274 273 272 269 265 266 265 264 264 263 264 264 264 263 264 263 263 263 263 264 265 268 269 269 269 265 268
273 267 265 263 263 263 263 265 264 264 261 260 262 266 266 273 273 272 270 262 262 263 264 264 263 263 263 263 262 260 259 259 259 259 261 262 262 265 267 268 267 265 266
266 267 264 264 264 264 264 265 265 264 263 263 263 260 265 266 258 256 255 253 257 260 260 263 263 261 258 259 256 252 257 257 257 258 258 260 261 264 265 266 267 264 266
264 267 266 267 267 267 266 266 266 265 264 265 262 259 261 263 260 260 261 257 257 259 257 259 257 255 255 256 259 254 254 252 255 256 257 259 259 260 265 265 264 266 266
268 269 270 268 269 266 267 268 265 265 266 265 263 264 263 261 265 263 262 258 257 258 259 258 258 259 258 258 257 249 250 249 251 254 255 257 259 261 263 264 262 259 263
268 265 268 268 267 264 263 264 262 261 261 261 264 265 265 264 263 263 263 265 264 259 257 258 254 257 257 254 253 254 253 253 253 250 251 256 259 261 261 261 262 259 257
266 263 267 263 261 261 258 256 257 260 261 260 259 261 263 263 260 260 262 263 263 264 262 258 256 259 259 254 250 253 256 252 251 252 249 255 258 259 259 260 260 259 255
261 260 259 258 256 254 254 255 255 254 256 256 257 258 261 261 259 256 256 259 261 261 262 265 263 260 259 258 255 257 254 254 251 251 250 251 252 253 256 259 257 261 254
262 262 260 259 257 254 253 252 251 252 255 258 256 254 254 259 260 252 255 257 258 259 261 262 262 262 263 259 258 257 254 254 252 252 249 252 250 252 252 256 258 258 258

GFSGL_sfc_thetae_132.txt.gz
Theta_e
280 281 281 281 283 284 283 284 285 288 288 289 290 290 291 294 297 302 302 304 305 306 308 313 315 319 322 321 320 320 318 317 313 317 320 321 319 324 325 323 325 324 322
279 280 280 280 281 282 281 282 284 284 287 287 288 288 288 290 292 294 298 304 307 307 306 311 314 318 318 317 316 317 319 319 317 314 318 319 319 321 324 324 324 324 324
278 278 278 278 279 279 280 280 281 283 284 286 286 286 286 287 288 290 291 293 293 294 294 294 294 297 310 315 315 316 317 318 319 318 316 320 320 318 321 323 323 323 323
276 276 276 276 277 277 278 279 280 281 282 284 284 285 285 285 285 286 286 287 288 288 290 291 290 290 290 295 303 302 314 317 317 316 316 316 317 318 319 319 317 319 319
275 274 274 275 276 277 277 278 278 279 280 282 282 283 284 284 285 284 284 283 283 284 285 286 287 290 289 288 289 289 292 300 313 314 314 314 316 315 315 318 318 318 317
274 273 274 274 274 275 275 276 277 277 278 278 280 281 281 283 284 284 282 281 282 281 281 283 284 286 287 286 286 286 286 287 294 296 291 297 291 288 291 296 307 311 308
275 274 274 274 273 273 274 274 274 275 277 277 277 278 279 280 283 283 281 279 279 280 279 280 281 283 284 284 284 284 284 285 284 286 284 284 284 284 286 290 290 292 293
275 274 274 273 272 272 272 273 273 274 274 275 275 276 277 279 281 281 280 278 277 277 279 279 279 280 281 281 282 281 281 282 283 283 282 282 283 284 284 286 287 288 288
274 274 274 274 272 272 271 272 273 273 273 273 274 274 274 276 280 279 277 276 275 275 276 279 278 278 281 282 278 278 278 278 282 283 283 283 282 283 283 283 282 286 286
273 273 274 275 273 272 272 272 273 273 272 272 272 273 276 273 278 278 275 274 272 273 274 275 279 278 279 279 276 276 274 275 277 278 278 279 280 280 281 279 280 279 280
273 274 273 273 273 272 273 273 273 273 272 272 271 272 272 274 274 277 276 272 271 271 271 271 274 276 277 277 276 274 273 275 275 276 276 277 277 277 277 278 278 279 277
269 269 269 269 272 271 270 271 272 272 272 270 270 271 272 272 275 276 275 274 272 269 269 270 271 274 274 274 272 273 273 272 272 272 272 272 274 275 276 277 278 278 279
269 267 266 268 268 268 266 268 270 270 270 270 270 269 269 271 271 274 274 273 271 268 269 270 271 271 270 269 271 270 268 268 268 268 268 269 271 274 276 276 277 277 279
267 267 267 266 267 266 269 270 269 270 269 268 269 267 268 269 270 271 270 269 268 267 266 266 266 268 265 266 266 266 265 266 265 266 266 268 270 272 272 274 273 274 274
271 271 270 271 266 266 267 267 271 271 272 269 268 268 268 268 270 273 272 268 267 267 264 264 263 263 263 263 263 263 263 263 263 265 265 265 266 268 269 272 271 271 271
273 272 270 270 269 269 266 266 274 275 275 276 275 272 268 274 274 273 273 272 271 269 263 261 260 261 261 261 261 261 261 261 261 263 263 264 264 265 267 269 269 268 268
271 272 271 271 269 268 266 266 263 266 273 274 274 275 274 274 273 273 272 271 271 268 262 260 259 259 261 261 260 260 259 260 261 260 261 261 262 263 265 266 267 267 267
269 267 266 265 263 262 259 260 260 260 258 261 268 272 273 273 273 272 271 268 264 265 264 262 259 261 262 262 260 259 259 259 259 258 259 259 258 261 262 264 265 264 265
270 265 262 260 259 260 260 261 260 260 259 260 262 265 264 271 271 270 268 260 260 262 263 263 262 261 262 262 257 256 254 256 256 254 257 257 257 259 260 262 263 262 263
264 262 263 264 263 262 261 261 262 262 261 261 263 262 263 263 258 259 257 259 262 262 263 263 263 262 259 260 258 253 257 256 257 257 256 256 257 258 259 260 261 262 263
266 265 265 265 264 263 262 261 262 260 260 261 260 259 260 261 260 260 260 260 260 261 261 262 262 261 259 259 260 257 257 255 256 256 256 257 255 257 260 260 261 261 262
268 268 267 265 265 262 263 263 260 260 260 260 259 260 258 258 258 258 258 256 256 259 260 261 261 262 262 261 260 256 256 254 254 255 255 255 257 258 259 259 259 260 261
268 267 266 265 264 260 259 260 257 256 255 254 256 258 258 255 253 255 254 253 256 256 257 259 259 260 260 261 260 258 257 259 257 254 253 253 256 257 257 256 258 258 259
267 264 265 261 258 257 253 250 253 255 255 252 249 252 252 255 250 248 250 251 253 254 254 255 257 256 257 257 259 261 261 260 256 255 252 253 255 257 255 256 257 258 258
263 261 259 257 254 252 250 251 248 246 248 246 246 247 252 252 255 250 250 251 253 253 253 254 255 255 255 254 255 258 260 261 256 252 254 254 254 254 254 255 256 257 258
263 261 259 257 253 250 248 247 246 245 245 245 244 243 245 249 252 246 249 251 252 252 252 253 253 253 253 254 256 258 257 260 258 255 252 255 254 255 255 255 256 257 258